AD7CQ Weather Reports


time (UTC)temp
F
wind
direction
speed
knots
gust
knots
rain 1hr
in
rain 24hr
in
rain mn
in
humidity
%
barometer
mb
20260509231604 78 4 0.0 5.2 0.00 0.00 0.00 32 1014.3
20260509230056 78 21 0.9 5.2 0.00 0.00 0.00 32 1014.4
20260509224602 78 81 0.0 3.5 0.00 0.00 0.00 33 1014.7
20260509223053 78 84 0.0 6.1 0.00 0.00 0.00 31 1014.9
20260509221551 78 102 0.9 2.6 0.00 0.00 0.00 33 1015.0
20260509220049 78 108 1.7 5.2 0.00 0.00 0.00 32 1015.2
20260509214548 78 114 0.0 2.6 0.00 0.00 0.00 30 1015.3
20260509213059 77 111 0.0 2.6 0.00 0.00 0.00 32 1015.4
20260509211609 77 110 0.0 2.6 0.00 0.00 0.00 33 1015.6
20260509210044 77 100 0.9 2.6 0.00 0.00 0.00 31 1015.7
20260509204557 77 97 0.0 1.7 0.00 0.00 0.00 33 1015.8
20260509203052 77 98 0.0 2.6 0.00 0.00 0.00 34 1016.1
20260509201541 77 99 0.0 3.5 0.00 0.00 0.00 33 1016.3
20260509200039 75 99 0.0 1.7 0.00 0.00 0.00 36 1016.4
20260509194541 75 98 0.0 2.6 0.00 0.00 0.00 34 1016.6
20260509193036 75 100 0.0 3.5 0.00 0.00 0.00 35 1016.8
20260509191535 73 92 0.0 2.6 0.00 0.00 0.00 37 1016.9
20260509190043 74 93 0.0 2.6 0.00 0.00 0.00 36 1017.1
20260509184531 74 92 0.0 3.5 0.00 0.00 0.00 36 1017.4
20260509183027 73 89 0.0 3.5 0.00 0.00 0.00 38 1017.6
20260509181523 72 84 0.0 0.9 0.00 0.00 0.00 39 1017.5
20260509180019 71 83 0.0 1.7 0.00 0.00 0.00 41 1017.7
20260509174516 69 81 0.0 1.7 0.00 0.00 0.00 42 1017.9
20260509173013 69 66 0.0 3.5 0.00 0.00 0.00 42 1017.9
20260509171509 69 64 0.0 1.7 0.00 0.00 0.00 42 1018.0
20260509170006 68 45 0.0 2.6 0.00 0.00 0.00 44 1018.1
20260509164502 68 44 0.0 0.9 0.00 0.00 0.00 43 1018.1
20260509163105 67 46 0.0 0.0 0.00 0.00 0.00 44 1018.3
20260509161554 66 45 0.0 0.9 0.00 0.00 0.00 47 1018.3
20260509160052 65 45 0.0 0.0 0.00 0.00 0.00 51 1018.4
20260509154545 65 45 0.0 0.0 0.00 0.00 0.00 52 1018.4
20260509153041 64 45 0.0 0.0 0.00 0.00 0.00 54 1018.4
20260509151639 62 45 0.0 0.0 0.00 0.00 0.00 56 1018.5
20260509150036 62 45 0.0 0.0 0.00 0.00 0.00 57 1018.3
20260509144527 61 45 0.0 0.0 0.00 0.00 0.00 59 1018.3
20260509143028 60 44 0.0 0.0 0.00 0.00 0.00 63 1018.0
20260509141519 57 45 0.0 1.7 0.00 0.00 0.00 67 1018.1
20260509140015 55 44 0.0 0.0 0.00 0.00 0.00 71 1018.1
20260509134510 54 45 0.0 0.0 0.00 0.00 0.00 72 1017.9
20260509133006 51 44 0.0 1.7 0.00 0.00 0.00 76 1017.7
20260509131502 50 45 0.0 0.9 0.00 0.00 0.00 78 1017.5
20260509124606 50 44 0.0 1.7 0.00 0.00 0.00 74 1017.5
20260509123053 51 93 0.0 0.9 0.00 0.00 0.00 71 1017.4
20260509121551 52 93 0.0 1.7 0.00 0.00 0.00 71 1017.3
20260509120051 52 93 0.0 1.7 0.00 0.00 0.00 72 1017.3
20260509114556 51 93 0.0 1.7 0.00 0.00 0.00 72 1017.3
20260509113050 52 93 0.0 0.9 0.00 0.00 0.00 71 1017.2
20260509111551 51 93 0.0 0.9 0.00 0.00 0.00 71 1017.1
20260509110054 52 93 0.0 0.9 0.00 0.00 0.00 69 1017.3
20260509104547 52 93 0.0 0.9 0.00 0.00 0.00 68 1017.0
20260509103046 51 93 0.0 0.0 0.00 0.00 0.00 71 1017.0
20260509101544 51 93 0.0 0.0 0.00 0.00 0.00 70 1016.9
20260509100041 52 93 0.0 0.0 0.00 0.00 0.00 70 1016.8
20260509094540 52 93 0.0 0.9 0.00 0.00 0.00 70 1016.8
20260509093038 53 93 0.0 0.0 0.00 0.00 0.00 68 1016.6
20260509091536 53 93 0.0 0.9 0.00 0.00 0.00 65 1016.6
20260509090032 54 93 0.0 0.9 0.00 0.00 0.00 63 1016.5
20260509084531 55 93 0.0 0.0 0.00 0.00 0.00 61 1016.5
20260509083026 56 93 0.0 0.0 0.00 0.00 0.00 59 1016.4
20260509081523 56 93 0.0 0.0 0.00 0.00 0.00 56 1016.2
20260509080025 57 93 0.0 1.7 0.00 0.00 0.00 54 1016.1
20260509074516 58 119 0.0 2.6 0.00 0.00 0.00 51 1016.0
20260509073032 60 118 0.0 1.7 0.00 0.00 0.00 49 1015.8
20260509071509 60 119 0.0 1.7 0.00 0.00 0.00 49 1015.6
20260509070007 60 117 0.0 1.7 0.00 0.00 0.00 50 1015.4
20260509064505 61 242 0.0 1.7 0.00 0.00 0.00 46 1015.4
20260509063003 61 242 0.0 0.0 0.00 0.00 0.00 41 1015.2
20260509061501 62 241 0.0 0.0 0.00 0.00 0.00 40 1015.0
20260509060003 62 241 0.0 0.9 0.00 0.00 0.00 38 1015.0
20260509054604 63 241 0.0 1.7 0.00 0.00 0.00 38 1014.5
20260509053057 64 241 0.0 1.7 0.00 0.00 0.00 35 1014.7
20260509051603 65 241 0.0 1.7 0.00 0.00 0.00 34 1014.6
20260509050053 66 241 0.0 1.7 0.00 0.00 0.00 32 1014.3
20260509044554 66 242 0.0 2.6 0.00 0.00 0.00 31 1014.2
20260509043054 66 241 0.9 2.6 0.00 0.00 0.00 31 1013.7
20260509041546 66 253 0.0 1.7 0.00 0.00 0.00 31 1013.5
20260509040052 67 253 0.0 2.6 0.00 0.00 0.00 30 1013.1
20260509034541 67 262 0.9 3.5 0.00 0.00 0.00 29 1012.8
20260509033040 69 270 0.9 3.5 0.00 0.00 0.00 26 1012.6
20260509031538 70 293 1.7 8.7 0.00 0.00 0.00 23 1012.3
20260509030040 71 299 0.9 7.0 0.00 0.00 0.00 22 1012.1
20260509024536 73 254 1.7 5.2 0.00 0.00 0.00 21 1011.6
20260509023036 74 359 0.9 3.5 0.00 0.00 0.00 19 1011.5
20260509021536 75 299 0.9 5.2 0.00 0.00 0.00 20 1011.4
20260509020035 77 273 0.9 7.0 0.00 0.00 0.00 19 1011.2
20260509014534 78 291 0.9 7.8 0.00 0.00 0.00 19 1011.1
20260509013045 79 292 0.9 4.3 0.00 0.00 0.00 20 1011.0
20260509011534 80 308 0.9 5.2 0.00 0.00 0.00 20 1010.8
20260509010037 80 274 0.9 5.2 0.00 0.00 0.00 19 1010.7
20260509004557 81 241 0.9 6.1 0.00 0.00 0.00 17 1010.6
20260509003041 81 248 1.7 7.0 0.00 0.00 0.00 19 1010.5
20260509001531 81 252 1.7 6.1 0.00 0.00 0.00 16 1010.5
20260509000030 81 251 0.9 5.2 0.00 0.00 0.00 18 1010.5
20260508234529 81 241 0.9 7.8 0.00 0.00 0.00 17 1010.5
20260508233029 81 178 2.6 11.3 0.00 0.00 0.00 19 1010.6